Weather History for Burbank, CA

Change the Weather History Date:

Friday, August 30, 2013

  Actual Average Record
Temperature  
Mean Temperature 89 °F 75 °F  
Max Temperature 97 °F 88 °F 109 °F (1967)
Min Temperature 80 °F 62 °F 50 °F (1941)
Degree Days  
Heating Degree Days 0 0  
Month to date heating degree days 0 0  
Since 1 June heating degree days 0 13  
Since 1 July heating degree days 0 0  
Cooling Degree Days 24 10  
Month to date cooling degree days 402 300  
Year to date cooling degree days 1406 864  
Since 1 June cooling degree days 1077 740  
Growing Degree Days 38 (Base 50)    
Moisture  
Dew Point 60 °F    
Average Humidity 41    
Maximum Humidity 51    
Minimum Humidity 30    
Precipitation  
Precipitation 0.00 in 0.00 in 0.01 in (1951)
Month to date precipitation 0.00 0.07  
Year to date precipitation 2.61 12.64  
Since 1 July precipitation 0.01 0.09  
Sea Level Pressure  
Sea Level Pressure 29.90 in    
Wind  
Wind Speed 5 mph (SSE)    
Max Wind Speed 16 mph    
Max Gust Speed 24 mph    
Visibility 10 miles    
Events      
T = Trace of Precipitation, MM = Missing Value Source: NWS Daily Summary

Daily Weather History Graph

Daily Weather History Graph

Search for Another Location

Airport:

Trip Planner

Search our weather history database for the weather conditions in past years. The results will help you decide how hot, cold, wet, or windy it might be!

Date:

Astronomy

Aug. 30, 2013 Rise Set
Actual Time 6:25 AM PDT 7:21 PM PDT
Civil Twilight 6:00 AM PDT 7:47 PM PDT
Nautical Twilight 5:29 AM PDT 8:17 PM PDT
Astronomical Twilight 4:58 AM PDT 8:48 PM PDT
Moon 1:16 AM PDT (8/30) 3:33 PM PDT (8/30)
Length of Visible Light 13h 47m
Length of Day
12h 55m
Waning Crescent, 28% of the Moon is Illuminated
Aug 30
Waning Crescent
Sep 5
New
Sep 12
First Quarter
Sep 19
Full
Sep 26
Last Quarter

Hourly Weather History & Observations

Time (PDT) Temp. Heat Index Dew Point Humidity Pressure Visibility Wind Dir Wind Speed Gust Speed Precip Events Conditions
12:53 AM 84.0 °F - 52.0 °F 33% 29.90 in 10.0 mi Calm Calm - N/A   Clear
1:53 AM 82.9 °F 81.8 °F 53.1 °F 36% 29.88 in 10.0 mi Calm Calm - N/A   Clear
2:53 AM 82.9 °F - 48.0 °F 29% 29.88 in 10.0 mi Calm Calm - N/A   Clear
3:53 AM 82.9 °F - 48.9 °F 31% 29.87 in 10.0 mi NW 3.5 mph - N/A   Clear
4:53 AM 82.0 °F - 50.0 °F 33% 29.88 in 10.0 mi Calm Calm - N/A   Clear
5:53 AM 81.0 °F - 52.0 °F 36% 29.89 in 10.0 mi Calm Calm - N/A   Clear
6:53 AM 81.0 °F 80.4 °F 53.1 °F 38% 29.91 in 10.0 mi Calm Calm - N/A   Clear
7:53 AM 86.0 °F - 51.1 °F 30% 29.93 in 10.0 mi Calm Calm - N/A   Clear
8:53 AM 90.0 °F 90.3 °F 62.1 °F 39% 29.94 in 10.0 mi SE 8.1 mph - N/A   Clear
9:53 AM 93.0 °F 94.2 °F 63.0 °F 37% 29.94 in 10.0 mi SE 6.9 mph - N/A   Clear
10:53 AM 93.9 °F 95.2 °F 63.0 °F 36% 29.93 in 10.0 mi SSE 8.1 mph - N/A   Clear
11:53 AM 95.0 °F 96.0 °F 63.0 °F 34% 29.93 in 10.0 mi Variable 6.9 mph - N/A   Clear
12:53 PM 96.1 °F 98.3 °F 64.0 °F 35% 29.91 in 10.0 mi South 15.0 mph 19.6 mph N/A   Clear
1:53 PM 96.1 °F 98.3 °F 64.0 °F 35% 29.90 in 10.0 mi South 12.7 mph 18.4 mph N/A   Clear
2:53 PM 95.0 °F 97.0 °F 64.0 °F 36% 29.89 in 10.0 mi South 11.5 mph - N/A   Clear
3:53 PM 96.1 °F 98.3 °F 64.0 °F 35% 29.88 in 10.0 mi SSE 12.7 mph - N/A   Clear
4:53 PM 93.0 °F 95.0 °F 64.9 °F 39% 29.88 in 10.0 mi South 10.4 mph - N/A   Clear
5:53 PM 91.9 °F 94.1 °F 64.9 °F 41% 29.89 in 10.0 mi South 8.1 mph - N/A   Clear
6:53 PM 90.0 °F 91.7 °F 64.9 °F 43% 29.89 in 10.0 mi South 5.8 mph - N/A   Clear
7:53 PM 89.1 °F 91.0 °F 64.9 °F 45% 29.90 in 10.0 mi South 4.6 mph - N/A   Clear
8:53 PM 88.0 °F 90.3 °F 66.0 °F 48% 29.91 in 10.0 mi Calm Calm - N/A   Clear
9:53 PM 88.0 °F 90.3 °F 66.0 °F 48% 29.92 in 10.0 mi South 3.5 mph - N/A   Clear
10:53 PM 87.1 °F 89.2 °F 66.0 °F 49% 29.92 in 10.0 mi ESE 4.6 mph - N/A   Clear
11:53 PM 86.0 °F 88.2 °F 66.0 °F 51% 29.92 in 10.0 mi SSE 3.5 mph - N/A   Clear